Regional Weather Roundup
Issued by NWS

Home | Current Version | Previous Version | Text Only | Print | Product List | Glossary Off
Versions: 1 2 3 4 5 6 7 8 9 10 11 12 13 14 15 16 17 18 19 20 21 22 23 24 25 26 27 28 29 30 31 32 33 34 35 36 37 38 39 40 41 42 43 44 45 46 47 48 49 50

450
ASUS45 KBOI 240610
RWRID

IDAHO REGIONAL WEATHER ROUNDUP
NATIONAL WEATHER SERVICE BOISE ID
1100 PM MST MON JAN 23 2017

NOTE: "FAIR" INDICATES FEW OR NO CLOUDS BELOW 12000 FEET
WITH NO SIGNIFICANT WEATHER AND/OR OBSTRUCTIONS TO VISIBILITY

IDZ012-014-240700-
SOUTHWEST IDAHO


CITY           SKY/WX    TMP DP  RH WIND       PRES   REMARKS
BOISE          CLOUDY    28  24  85 W12       29.69R WCI  18
CALDWELL       CLOUDY    29  25  85 W9        29.74R WCI  20
MOUNTAIN HOME  CLOUDY    29  29  99 NW16      29.68R WCI  17
$$

IDZ016-017-240700-
SOUTHCENTRAL IDAHO


CITY           SKY/WX    TMP DP  RH WIND       PRES   REMARKS
BURLEY         CLOUDY    28  22  78 W17       29.60R WCI  16
JEROME         CLOUDY    26  23  88 SW22      29.61R WCI  12
TWIN FALLS     CLOUDY    29  21  72 SW22G30   29.62S WCI  15
$$

IDZ019>023-240700-
SOUTHEAST IDAHO


CITY           SKY/WX    TMP DP  RH WIND       PRES   REMARKS
IDAHO FALLS    SNOW      26  25  96 NW20G28   29.52R VSB 1/2 WCI  12
POCATELLO      LGT SNOW  26  25  96 SW13      29.60R FOG     WCI  15
REXBURG        LGT SNOW  26  26 100 NE7       29.48R VSB 1   WCI  18
$$

IDZ006-010-011-018-031-032-240700-
CENTRAL IDAHO MOUNTAINS


CITY           SKY/WX    TMP DP  RH WIND       PRES   REMARKS
MCCALL         CLOUDY    23  18  81 NW6       29.62S WCI  16
HAILEY         CLOUDY    23  23 100 SE3       29.53S
STANLEY          N/A     19  15  84 W3        29.56R
SALMON         CLOUDY    10   9  92 CALM      29.68S
CHALLIS        CLOUDY    14  14 100 CALM      29.59S
$$

IDZ002-004-006-007-026-240700-
NORTHERN IDAHO


CITY           SKY/WX    TMP DP  RH WIND       PRES   REMARKS
LEWISTON       CLOUDY    31  26  82 W3        29.91R
LOWELL           N/A     33  27  78 VRB5      29.87R WCI  29
COEUR D`ALENE  CLEAR     29  28  96 W9        29.84S FOG     WCI  20
MULLAN PASS    CLOUDY    19  16  88 CALM      29.69R
$$




USA.gov is the U.S. government's official web portal to all federal, state and local government web resources and services.